DEBMC EDDE-EDAJ

Flight info

Callsign DEBMC
Flight time 0h 29m
Altitude
Route
Aircraft C152

Departure

Time 2026-05-09 13:32
Airport Erfurt-Weimar Airport (EDDE)

Arrival

Time 2026-05-09 14:02
Airport Gera-Leumnitz Airfield (EDAJ)
Time Latitude Longitude Altitude Speed Heading
2026-05-09 13:24 50.97787 10.95073 1038 ft 0 kts
2026-05-09 13:26 50.97788 10.95074 1038 ft 0 kts
2026-05-09 13:26 50.97814 10.95075 1038 ft 0 kts 359°
2026-05-09 13:26 50.97815 10.95075 1038 ft 0 kts
2026-05-09 13:27 50.97826 10.95085 1038 ft 1 kts 79°
2026-05-09 13:27 50.97818 10.95167 1037 ft 17 kts 98°
2026-05-09 13:27 50.97797 10.95433 1037 ft 23 kts 97°
2026-05-09 13:27 50.97780 10.95652 1037 ft 20 kts 96°
2026-05-09 13:28 50.97759 10.95906 1037 ft 25 kts 96°
2026-05-09 13:28 50.97741 10.96138 1037 ft 18 kts 95°
2026-05-09 13:28 50.97720 10.96393 1037 ft 25 kts 95°
2026-05-09 13:28 50.97700 10.96637 1037 ft 16 kts 99°
2026-05-09 13:29 50.97689 10.96787 1037 ft 12 kts 97°
2026-05-09 13:29 50.97674 10.96958 1037 ft 20 kts 95°
2026-05-09 13:29 50.97727 10.97048 1037 ft 11 kts
2026-05-09 13:29 50.97797 10.97063 1037 ft 0 kts
2026-05-09 13:30 50.97800 10.97063 1037 ft 2 kts
2026-05-09 13:30 50.97837 10.97070 1037 ft 5 kts
2026-05-09 13:31 50.97877 10.97055 1037 ft 3 kts 305°
2026-05-09 13:31 50.97887 10.96991 1037 ft 18 kts 276°
2026-05-09 13:31 50.97926 10.96505 1038 ft 66 kts 278°
2026-05-09 13:31 50.97964 10.95773 1175 ft 71 kts 270°
2026-05-09 13:32 50.97988 10.94936 1331 ft 75 kts 270°
2026-05-09 13:32 50.97425 10.93718 1640 ft 81 kts 203°
2026-05-09 13:32 50.96911 10.93363 1799 ft 84 kts 192°
2026-05-09 13:33 50.96313 10.93132 1911 ft 90 kts 178°
2026-05-09 13:33 50.95679 10.93090 2023 ft 95 kts 169°
2026-05-09 13:33 50.95041 10.93409 2072 ft 99 kts 146°
2026-05-09 13:33 50.94645 10.93799 2084 ft 95 kts 139°
2026-05-09 13:34 50.94085 10.94332 2130 ft 92 kts 147°
2026-05-09 13:34 50.93498 10.94782 2083 ft 99 kts 149°
2026-05-09 13:34 50.92836 10.95151 2042 ft 101 kts 161°
2026-05-09 13:34 50.92169 10.95418 2042 ft 98 kts 161°
2026-05-09 13:35 50.91480 10.95590 2029 ft 100 kts 170°
2026-05-09 13:35 50.90811 10.95697 2083 ft 95 kts 170°
2026-05-09 13:35 50.90234 10.95766 2077 ft 97 kts 171°
2026-05-09 13:35 50.89510 10.95868 2067 ft 110 kts 171°
2026-05-09 13:36 50.88726 10.95989 2084 ft 113 kts 171°
2026-05-09 13:36 50.88010 10.96307 2208 ft 103 kts 139°
2026-05-09 13:36 50.87685 10.97229 2340 ft 95 kts 95°
2026-05-09 13:36 50.87625 10.98265 2457 ft 94 kts 90°
2026-05-09 13:37 50.87617 10.99295 2555 ft 94 kts 85°
2026-05-09 13:37 50.87622 11.00330 2654 ft 95 kts 86°
2026-05-09 13:37 50.87631 11.01382 2754 ft 95 kts 86°
2026-05-09 13:37 50.87644 11.02413 2850 ft 94 kts 85°
2026-05-09 13:38 50.87648 11.03465 2947 ft 94 kts 86°
2026-05-09 13:38 50.87656 11.04501 3044 ft 94 kts 86°
2026-05-09 13:38 50.87661 11.05521 3138 ft 93 kts 86°
2026-05-09 13:38 50.87667 11.06542 3235 ft 93 kts 86°
2026-05-09 13:39 50.87677 11.07577 3299 ft 96 kts 86°
2026-05-09 13:39 50.87690 11.08667 3292 ft 102 kts 86°
2026-05-09 13:39 50.87708 11.09808 3291 ft 105 kts 86°
2026-05-09 13:39 50.87727 11.10981 3287 ft 107 kts 86°
2026-05-09 13:40 50.87745 11.12153 3285 ft 107 kts 85°
2026-05-09 13:40 50.87760 11.13337 3289 ft 107 kts 86°
2026-05-09 13:40 50.87775 11.14534 3294 ft 108 kts 86°
2026-05-09 13:40 50.87788 11.15720 3291 ft 108 kts 86°
2026-05-09 13:41 50.87803 11.16911 3288 ft 108 kts 86°
2026-05-09 13:41 50.87820 11.18094 3286 ft 107 kts 86°
2026-05-09 13:41 50.87839 11.19282 3279 ft 107 kts 85°
2026-05-09 13:41 50.87860 11.20458 3281 ft 107 kts 85°
2026-05-09 13:42 50.87880 11.21636 3282 ft 107 kts 86°
2026-05-09 13:42 50.87905 11.22817 3280 ft 107 kts 85°
2026-05-09 13:42 50.87931 11.24009 3276 ft 108 kts 85°
2026-05-09 13:42 50.87957 11.25180 3272 ft 107 kts 85°
2026-05-09 13:43 50.87984 11.26371 3270 ft 108 kts 85°
2026-05-09 13:43 50.88011 11.27552 3267 ft 108 kts 85°
2026-05-09 13:43 50.88038 11.28739 3274 ft 108 kts 85°
2026-05-09 13:43 50.88067 11.29918 3276 ft 107 kts 85°
2026-05-09 13:44 50.88094 11.31104 3281 ft 107 kts 85°
2026-05-09 13:44 50.88123 11.32285 3280 ft 107 kts 85°
2026-05-09 13:44 50.88151 11.33460 3278 ft 107 kts 85°
2026-05-09 13:44 50.88175 11.34635 3268 ft 107 kts 85°
2026-05-09 13:45 50.88200 11.35810 3277 ft 106 kts 85°
2026-05-09 13:45 50.88227 11.36972 3279 ft 107 kts 85°
2026-05-09 13:45 50.88257 11.38160 3284 ft 108 kts 85°
2026-05-09 13:45 50.88290 11.39335 3284 ft 108 kts 85°
2026-05-09 13:46 50.88324 11.40517 3287 ft 108 kts 85°
2026-05-09 13:46 50.88359 11.41716 3287 ft 108 kts 85°
2026-05-09 13:46 50.88397 11.42907 3289 ft 108 kts 85°
2026-05-09 13:46 50.88434 11.44085 3286 ft 108 kts 84°
2026-05-09 13:47 50.88468 11.45268 3282 ft 107 kts 84°
2026-05-09 13:47 50.88501 11.46461 3285 ft 107 kts 84°
2026-05-09 13:47 50.88529 11.47623 3287 ft 107 kts 84°
2026-05-09 13:47 50.88555 11.48807 3284 ft 107 kts 84°
2026-05-09 13:48 50.88581 11.49978 3280 ft 107 kts 84°
2026-05-09 13:48 50.88612 11.51156 3286 ft 107 kts 84°
2026-05-09 13:48 50.88544 11.52331 3286 ft 107 kts 97°
2026-05-09 13:48 50.88554 11.53501 3288 ft 106 kts 84°
2026-05-09 13:49 50.88593 11.54659 3290 ft 107 kts 85°
2026-05-09 13:49 50.88614 11.55844 3293 ft 107 kts 86°
2026-05-09 13:49 50.88624 11.57027 3294 ft 107 kts 86°
2026-05-09 13:49 50.88627 11.58208 3294 ft 107 kts 87°
2026-05-09 13:50 50.88626 11.59388 3292 ft 107 kts 87°
2026-05-09 13:50 50.88624 11.60571 3289 ft 107 kts 87°
2026-05-09 13:50 50.88621 11.61747 3287 ft 107 kts 87°
2026-05-09 13:50 50.88618 11.62932 3287 ft 107 kts 87°
2026-05-09 13:51 50.88614 11.64105 3285 ft 108 kts 87°
2026-05-09 13:51 50.88609 11.65303 3282 ft 108 kts 87°
2026-05-09 13:51 50.88604 11.66495 3284 ft 108 kts 87°
2026-05-09 13:51 50.88600 11.67674 3289 ft 108 kts 87°
2026-05-09 13:52 50.88596 11.68870 3289 ft 108 kts 88°
2026-05-09 13:52 50.88590 11.70069 3288 ft 108 kts 88°
2026-05-09 13:52 50.88585 11.71263 3291 ft 108 kts 88°
2026-05-09 13:52 50.88580 11.72447 3297 ft 108 kts 88°
2026-05-09 13:53 50.88574 11.73632 3295 ft 107 kts 88°
2026-05-09 13:53 50.88569 11.74808 3298 ft 107 kts 88°
2026-05-09 13:53 50.88563 11.75997 3299 ft 107 kts 88°
2026-05-09 13:53 50.88557 11.77176 3299 ft 107 kts 88°
2026-05-09 13:54 50.88551 11.78354 3294 ft 108 kts 88°
2026-05-09 13:54 50.88544 11.79548 3293 ft 108 kts 87°
2026-05-09 13:54 50.88538 11.80729 3287 ft 108 kts 87°
2026-05-09 13:54 50.88533 11.81916 3292 ft 108 kts 87°
2026-05-09 13:55 50.88526 11.83119 3295 ft 108 kts 89°
2026-05-09 13:55 50.88379 11.84289 3296 ft 110 kts 105°
2026-05-09 13:55 50.88122 11.85432 3303 ft 110 kts 105°
2026-05-09 13:55 50.87869 11.86567 3301 ft 109 kts 105°
2026-05-09 13:56 50.87617 11.87707 3302 ft 109 kts 105°
2026-05-09 13:56 50.87366 11.88843 3300 ft 110 kts 105°
2026-05-09 13:56 50.87115 11.89978 3299 ft 110 kts 105°
2026-05-09 13:56 50.86872 11.91128 3301 ft 110 kts 103°
2026-05-09 13:57 50.86654 11.92292 3303 ft 110 kts 103°
2026-05-09 13:57 50.86441 11.93453 3301 ft 110 kts 102°
2026-05-09 13:57 50.86223 11.94633 3302 ft 111 kts 102°
2026-05-09 13:57 50.86008 11.95799 3303 ft 111 kts 102°
2026-05-09 13:58 50.85794 11.96967 3306 ft 110 kts 102°
2026-05-09 13:58 50.85589 11.98125 3293 ft 110 kts 99°
2026-05-09 13:58 50.85403 11.99323 3175 ft 118 kts 98°
2026-05-09 13:58 50.85397 12.00647 2910 ft 127 kts 82°
2026-05-09 13:59 50.85520 12.01969 2799 ft 118 kts 78°
2026-05-09 13:59 50.85692 12.03256 2555 ft 124 kts 75°
2026-05-09 13:59 50.85867 12.04548 2318 ft 120 kts 77°
2026-05-09 13:59 50.86048 12.05809 2115 ft 115 kts 76°
2026-05-09 14:00 50.86222 12.06973 1942 ft 106 kts 75°
2026-05-09 14:00 50.86285 12.07361 1862 ft 106 kts 75°
2026-05-09 14:00 50.86749 12.09069 1573 ft 97 kts 61°
2026-05-09 14:00 50.86988 12.09829 1553 ft 69 kts 60°
2026-05-09 14:01 50.87186 12.10465 1456 ft 64 kts 60°
2026-05-09 14:01 50.87369 12.11081 1354 ft 62 kts 59°
2026-05-09 14:01 50.87555 12.11667 1280 ft 58 kts 61°
2026-05-09 14:01 50.87741 12.12270 1168 ft 60 kts 59°
2026-05-09 14:02 50.87926 12.12863 1051 ft 60 kts 59°
2026-05-09 14:02 50.88095 12.13399 1009 ft 43 kts 62°
2026-05-09 14:02 50.88200 12.13731 1007 ft 25 kts 62°
2026-05-09 14:02 50.88231 12.13841 1007 ft 2 kts 246°
2026-05-09 14:03 50.88104 12.13438 1009 ft 25 kts 242°
2026-05-09 14:03 50.88012 12.13113 1007 ft 18 kts 242°
2026-05-09 14:03 50.88060 12.12997 1007 ft 17 kts 335°
2026-05-09 14:03 50.88123 12.12938 1007 ft 5 kts 328°
2026-05-09 14:04 50.88149 12.12916 1007 ft 6 kts 342°
2026-05-09 14:04 50.88176 12.12887 1008 ft 0 kts 313°
2026-05-09 14:04 50.88186 12.12883 1008 ft 3 kts 343°
2026-05-09 14:04 50.88202 12.12885 1008 ft 3 kts 65°
2026-05-09 14:05 50.88202 12.12889 1008 ft 0 kts 83°
2026-05-09 14:06 50.88172 12.12892 1007 ft 0 kts 88°
2026-05-09 14:14 50.87999 12.13094 1007 ft 0 kts 63°
2026-05-09 14:15 50.88077 12.13331 1009 ft 78 kts 57°
2026-05-09 14:16 50.88187 12.13833 1007 ft 14 kts 56°
2026-05-09 14:16 50.88206 12.13875 1007 ft 0 kts 51°